Home   Weather   Richterswil   Past weeks

Flag for Switzerland Past Weather in Richterswil, Zurich, Switzerland — Yesterday and Last 2 Weeks

Now
65 °F

Mild.


Feels Like: 65 °F
Forecast: 43 / 61 °F
Wind: 6 mph from Southwest

Location: Zuerich-Fluntern

Current Time: Apr 24, 2017 at 5:40:38 pm

Latest Report: Apr 24, 2017 at 4:00 pm


Visibility: N/A

Pressure: 29.88 "Hg

Humidity: 34%

Dew Point: 36 °F

Location of RichterswilLocation

Past Weather in Richterswil — Graph

°F

Richterswil Temperature Yesterday

Maximum temperature yesterday: 56 °F (at 6:00 pm)
Minimum temperature yesterday: 41 °F (at 6:00 am)
Average temperature yesterday: 47 °F

High & Low Weather Summary for the Past Weeks

 TemperatureHumidityPressure
High73 °F (Apr 9, 5:00 pm)96% (Apr 19, 2:00 pm)30.57 "Hg (Apr 19, 2:00 pm)
Low28 °F (Apr 20, 6:00 am)26% (Apr 9, 5:00 pm)29.88 "Hg (Apr 24, 4:00 pm)
Average48 °F62%30.20 "Hg
* Reported Apr 9 4:00 pm — Apr 24 4:00 pm, Richterswil, Weather by CustomWeather, © 2017

Note: Actual official high and low records may vary slightly from our data, if they occured in-between our weather recording intervals... More about our weather records

Advertising

Richterswil Weather History for the Previous 24 Hours

Scroll right to see more
 ConditionsComfort  
Time TempWeatherWind HumidityBarometerVisibility
4:00 pm
Mon, Apr 24
65 °FMild.6 mph34%29.88 "HgN/A
3:00 pm63 °FMild.5 mph37%29.93 "HgN/A
2:00 pm61 °FPassing clouds.2 mph43%29.96 "HgN/A
1:00 pm56 °FRefreshingly cool.3 mph46%30.01 "HgN/A
12:00 pm52 °FCool.5 mph52%30.04 "HgN/A
11:00 am49 °FCool.1 mph54%30.07 "HgN/A
10:00 am44 °FQuite cool.2 mph60%30.10 "HgN/A
9:00 am41 °FQuite cool.2 mph63%30.12 "HgN/A
8:00 am38 °FSunny.3 mph68%30.14 "HgN/A
7:00 am34 °FChilly.1 mph76%30.15 "HgN/A
6:00 am35 °FChilly.1 mph74%30.15 "HgN/A
5:00 am37 °FChilly.6 mph67%30.15 "HgN/A
4:00 am38 °FChilly.9 mph63%30.16 "HgN/A
3:00 am40 °FChilly.12 mph59%30.16 "HgN/A
2:00 am41 °FQuite cool.10 mph57%30.18 "HgN/A
1:00 am42 °FQuite cool.10 mph57%30.19 "HgN/A
12:00 am44 °FQuite cool.10 mph57%30.19 "HgN/A
11:00 pm
Sun, Apr 23
46 °FCool.8 mph53%30.19 "HgN/A
10:00 pm47 °FCool.7 mph52%30.19 "HgN/A
9:00 pm48 °FCool.5 mph49%30.17 "HgN/A
8:00 pm51 °FPassing clouds.3 mph42%30.15 "HgN/A
7:00 pm55 °FCool.2 mph38%30.14 "HgN/A
6:00 pm56 °FRefreshingly cool.6 mph37%30.14 "HgN/A
5:00 pm55 °FCool.5 mph41%30.14 "HgN/A
Weather by CustomWeather, © 2017

See weather overviewHow to use our weather pages